Location: LDNL
(36.4545°S, 141.6685°E)
Time: 04:27:28
(UTC+11:00)

RS-15 - Visible Passes

Search period start: 05 December 2022 00:00
Search period end: 15 December 2022 00:00
Orbit: 1882 x 2162 km, 64.8° (Epoch: 03 December)

Date Brightness Start Highest point End Pass type
(mag) Time Alt. Az. Time Alt. Az. Time Alt. Az.
05 Dec 8.0 00:22:14 46° NE 00:24:00 50° ENE 00:34:14 10° SE visible
05 Dec 8.5 02:29:56 24° WNW 02:36:20 45° SW 02:46:43 10° SSE visible
05 Dec 9.7 04:46:35 10° SW 04:52:37 16° SSW 04:58:42 10° SSE visible
05 Dec 8.4 23:46:52 35° ENE 23:48:17 37° ENE 23:57:45 10° SE visible
06 Dec 8.2 01:54:34 32° WNW 02:00:02 58° SW 02:10:46 10° SSE visible
06 Dec 9.7 04:08:25 10° WSW 04:15:27 19° SSW 04:22:33 10° SSE visible
06 Dec 8.7 23:11:25 26° ENE 23:12:39 26° ENE 23:20:57 10° SE visible
07 Dec 7.9 01:19:06 40° NW 01:23:52 74° WSW 01:34:48 10° SSE visible
07 Dec 9.5 03:30:26 10° W 03:38:27 22° SSW 03:46:32 10° SSE visible
07 Dec 9.0 22:35:52 17° ENE 22:37:07 18° E 22:43:32 10° ESE visible
08 Dec 7.8 00:43:33 45° NNW 00:47:49 87° ENE 00:58:45 10° SSE visible
08 Dec 9.3 02:52:42 10° W 03:01:37 28° SW 03:10:36 10° SSE visible
08 Dec 10.0 05:14:57 10° SSW 05:19:36 13° S 05:24:18 10° SSE visible
08 Dec 9.3 22:00:13 11° ENE 22:01:40 11° E 22:04:03 10° E visible
09 Dec 7.8 00:07:53 44° N 00:11:52 68° ENE 00:22:38 10° SE visible
09 Dec 9.0 02:15:32 11° WNW 02:24:58 35° SW 02:34:41 10° SSE visible
09 Dec 9.9 04:37:08 10° SW 04:42:12 14° S 04:47:19 10° SSE visible
09 Dec 8.0 23:32:04 38° NNE 23:36:03 52° ENE 23:46:23 10° SE visible
10 Dec 8.7 01:39:43 15° WNW 01:48:29 44° SW 01:58:46 10° SSE visible
10 Dec 9.8 03:58:59 10° SW 04:04:53 15° SSW 04:10:50 10° SSE visible
10 Dec 8.3 22:56:04 29° NNE 23:00:18 38° ENE 23:09:55 10° SE visible
11 Dec 8.3 01:03:41 18° NW 01:12:09 56° SW 01:22:50 10° SSE visible
11 Dec 9.8 03:20:49 10° WSW 03:27:42 18° SSW 03:34:39 10° SSE visible
11 Dec 8.6 22:19:46 20° NE 22:24:40 28° ENE 22:33:11 10° SE visible
12 Dec 8.0 00:27:22 19° NW 00:35:57 71° WSW 00:46:53 10° SSE visible
12 Dec 9.6 02:42:47 10° WSW 02:50:40 22° SSW 02:58:37 10° SSE visible
12 Dec 10.1 05:04:25 10° SSW 05:09:19 13° S 05:14:16 10° SE visible
12 Dec 8.9 21:43:01 12° NE 21:49:07 19° E 21:55:53 10° ESE visible
12 Dec 7.8 23:50:33 16° NNW 23:59:53 90° W 00:10:51 10° SSE visible
13 Dec 9.4 02:05:01 10° W 02:13:49 27° SW 02:22:40 10° SSE visible
13 Dec 10.1 04:27:15 10° SSW 04:31:54 13° S 04:36:35 10° SSE visible
13 Dec 9.2 21:10:16 10° ENE 21:13:40 12° E 21:17:02 10° ESE visible
13 Dec 7.8 23:12:59 10° NNW 23:23:57 71° ENE 23:34:45 10° SE visible
14 Dec 9.1 01:27:33 10° WNW 01:37:08 34° SW 01:46:45 10° SSE visible
14 Dec 10.0 03:49:30 10° SW 03:54:29 14° S 03:59:31 10° SSE visible
14 Dec 8.0 22:37:31 10° N 22:48:05 54° ENE 22:58:30 10° SE visible
